Regional Weather Roundup
Issued by NWS

Home | Current Version | Previous Version | Graphics & Text | Print | Product List | Glossary Off
Versions: 1 2 3 4 5 6 7 8 9 10 11 12 13 14 15 16 17 18 19 20 21 22 23 24 25 26 27 28 29 30 31 32 33 34 35 36 37 38 39 40 41 42 43 44 45 46 47 48 49 50

000
ASUS45 KBOU 221107
RWRCO

WEATHER ROUNDUP FOR COLORADO
NATIONAL WEATHER SERVICE DENVER/BOULDER CO
500 AM MDT FRI SEP 22 2017

NOTE: "FAIR" INDICATES FEW OR NO CLOUDS BELOW 12000 FEET WITH NO
SIGNIFICANT WEATHER AND/OR OBSTRUCTIONS TO VISIBILITY.

COZ001>005-013-030-031-221200-
...NORTHWEST COLORADO...

CITY           SKY/WX    TMP DP  RH WIND       PRES   REMARKS
CRAIG          FAIR      60  26  27 SW14G21   29.81R
HAYDEN         FAIR      52  24  33 VRB7      29.85R
MEEKER         FAIR      62  27  26 S12G24    29.82R
RABBIT EARS PA FAIR      43  23  45 SW8G31    30.06S
STEAMBOAT SPGS FAIR      42  29  60 CALM      29.86R
WALDEN         FAIR      37  21  52 SE7       29.93S
$$

COZ006>008-011-221200-
...WEST CENTRAL VALLEYS...

CITY           SKY/WX    TMP DP  RH WIND       PRES   REMARKS
GRAND JUNCTION FAIR      68  32  26 S10       29.77R
MONTROSE       FAIR      61  34  36 VRB5      29.85R
EAGLE          FAIR      46  25  43 E8        29.90R
RIFLE          FAIR      69  30  23 S20G33    29.81S
DELTA          FAIR      67  32  26 CALM      29.82S
NUCLA          MOCLDY    64  32  29 S14G25    29.89R
$$

COZ017>023-064>068-221200-
...SOUTHWEST COLORADO...

CITY           SKY/WX    TMP DP  RH WIND       PRES   REMARKS
DURANGO        MOCLDY    54  36  50 E5        29.99S
CORTEZ         CLOUDY    62  38  40 SW7       29.90S
PAGOSA SPRINGS MOCLDY    49  34  54 CALM      30.05F
TELLURIDE      LGT RAIN  55  32  43 S17G45    30.05F
WOLF CREEK PAS NOT AVBL
$$

COZ009-010-012-014-032>034-037-058>063-221200-
...CENTRAL COLORADO...

CITY           SKY/WX    TMP DP  RH WIND       PRES   REMARKS
ASPEN          FAIR      48  29  47 S5        29.94R
BUENA VISTA    FAIR      52  27  39 E6        29.99S
COPPER MTN     FAIR      45  14  29 S26G35    30.19S
BERTHOUD PASS  FAIR      36  30  80 SW10G24   30.19S
COTTONWOOD PAS FAIR      55  27  33 S5        30.10S
GUNNISON       FAIR      39  26  59 N7        29.99F
KREMMLING      FAIR      36  25  64 CALM      29.94R
LEADVILLE      FAIR      48  17  29 S8        30.07S
MONARCH PASS   FAIR      37  30  75 SW37G45   30.30S
SALIDA         FAIR      60  30  32 SW17      30.06R
SUNLIGHT       FAIR      41  25  52 SW10G28   30.10S
WILKERSON PASS FAIR      43  23  45 S13G32    30.16R
$$

COZ069>075-221200-
...SAN LUIS VALLEY/SANGRE DE CRISTO MOUNTAINS...

CITY           SKY/WX    TMP DP  RH WIND       PRES   REMARKS
ALAMOSA        FAIR      48  35  60 S12       30.01S
DEL NORTE      FAIR      54  36  51 SW15G22   30.04F
LA VETA PASS   FAIR      46  30  53 SW29G46   30.21F
SAGUACHE       FAIR      39  28  65 NW3       30.04S
$$

COZ035-036-038>040-221200-
...NORTHERN COLORADO FRONT RANGE...

CITY           SKY/WX    TMP DP  RH WIND       PRES   REMARKS
DENVER INTL AP FAIR      64  25  22 S15       29.74S
DMNS CITY PARK   N/A     61  27  28 N9        29.77R
AURORA         PTCLDY    66  28  23 S13       29.78R
FRONT RANGE AP FAIR      70  28  21 S17G23    29.77R
ERIE MUNI ARPT FAIR      48  33  55 CALM      29.83R
BOULDER MUN AP FAIR      54  34  47 CALM      29.78R
CENTENNIAL     FAIR      63  28  26 S7        29.78R
BROOMFIELD     FAIR      54  32  43 N15       29.79R
FORT COLLINS   FAIR      50  36  58 N7        29.77R
LONGMONT       FAIR      51  36  56 CALM      29.78R HAZE
$$

COZ041-046-047-076>085-087-088-221200-
...PIKES PEAK/PALMER DIVIDE AND SOUTHERN FOOTHILLS...

CITY           SKY/WX    TMP DP  RH WIND       PRES   REMARKS
COLO. SPRINGS  FAIR      69  31  24 SW21G36   29.83F
A. F. ACADEMY  FAIR      60  26  27 CALM      29.84R
SCHRIEVER AFB  FAIR      65  28  24 SW17      29.86R
CHEYENNE MTN   FAIR      65  27  24 N15G29    29.78R
ELLICOTT         N/A    N/A N/A N/A S12       29.85R
FALCON         FAIR      58  26  29 S15       29.90S
FORT CARSON    FAIR      70  31  23 S17       29.81R
LIMON          FAIR      53  29  39 S3        29.80R
MONUMENT HILL  FAIR      50  28  43 S9        29.91R
CANON CITY     CLEAR     72  34  25 W10       29.81R
WALSENBURG     FAIR      68  34  28 S9G22     29.88R
TRINIDAD       FAIR      72  37  28 SW20G26   29.86S
$$

COZ042>045-048>051-090-091-221200-
...NORTHEAST COLORADO...

CITY           SKY/WX    TMP DP  RH WIND       PRES   REMARKS
GREELEY ARPT   FAIR      52  39  61 N5        29.76R
AKRON          FAIR      62  25  24 NW8       29.74R
BURLINGTON     FAIR      58  43  57 S14       29.76R
WRAY           FAIR      63  32  31 SW3       29.70S
YUMA           FAIR      54  32  43 SE7       29.70R
STERLING       FAIR      50  37  62 NE5       29.72R
HOLYOKE        FAIR      59  34  38 W9        29.72R
FORT MORGAN    FAIR      51  33  51 N13       29.74R
$$

COZ086-089-092>099-221200-
...SOUTHEAST COLORADO...

CITY           SKY/WX    TMP DP  RH WIND       PRES   REMARKS
PUEBLO         FAIR      67  32  27 SW8       29.75R
LA JUNTA       FAIR      69  38  32 W13       29.76R
LAMAR          FAIR      66  43  43 S14       29.75R
SPRINGFIELD      N/A     61  48  62 S21       29.85R
$$



USA.gov is the U.S. government's official web portal to all federal, state and local government web resources and services.